Weather History for Sierra Vista, AZ

Change the Weather History Date:

Tuesday, July 9, 2013

  Actual Average Record
Temperature  
Mean Temperature 76 °F -  
Max Temperature 89 °F 89 °F 104 °F (2003)
Min Temperature 62 °F 70 °F 60 °F (1987)
Cooling Degree Days 10    
Growing Degree Days 26 (Base 50)    
Moisture  
Dew Point 61 °F    
Average Humidity 68    
Maximum Humidity 94    
Minimum Humidity 31    
Precipitation  
Precipitation 0.88 in - - ()
Sea Level Pressure  
Sea Level Pressure 30.08 in    
Wind  
Wind Speed 12 mph (East)    
Max Wind Speed 54 mph    
Max Gust Speed 82 mph    
Visibility 9 miles    
Events Rain , Thunderstorm    
Averages and records for this station are not official NWS values.
T = Trace of Precipitation, MM = Missing Value Source: NWS Daily Summary

Daily Weather History Graph

Daily Weather History Graph

Search for Another Location

Airport:

Trip Planner

Search our weather history database for the weather conditions in past years. The results will help you decide how hot, cold, wet, or windy it might be!

Date:

Astronomy

Jul. 09, 2013 Rise Set
Actual Time 5:23 AM MST 7:29 PM MST
Civil Twilight 4:56 AM MST 7:56 PM MST
Nautical Twilight 4:22 AM MST 8:30 PM MST
Astronomical Twilight 3:46 AM MST 9:06 PM MST
Moon 6:43 AM MST (7/9) 8:18 PM MST (7/9)
Length of Visible Light 15h 00m
Length of Day
14h 05m
New Moon, 2% of the Moon is Illuminated
Jul 9
New Moon
Jul 15
First Quarter
Jul 22
Full
Jul 29
Last Quarter
Aug 6
New

Hourly Weather History & Observations

Time (MST) Temp. Heat Index Dew Point Humidity Pressure Visibility Wind Dir Wind Speed Gust Speed Precip Events Conditions
12:09 AM 78.8 °F - 60.8 °F 54% 30.20 in 10.0 mi ESE 16.1 mph - N/A Thunderstorm Thunderstorm
12:17 AM 77.0 °F - 60.8 °F 57% 30.20 in 10.0 mi ESE 13.8 mph - N/A Rain , Thunderstorm Light Thunderstorms and Rain
12:55 AM 73.4 °F - 64.4 °F 73% 29.99 in 10.0 mi South 10.4 mph - N/A Rain , Thunderstorm Light Thunderstorms and Rain
1:13 AM 73.4 °F - 64.4 °F 73% 30.19 in 10.0 mi SE 8.1 mph - N/A   Mostly Cloudy
1:55 AM 73.4 °F - 64.4 °F 73% 29.98 in 10.0 mi WNW 9.2 mph - N/A   Mostly Cloudy
2:55 AM 73.4 °F - 66.2 °F 78% 29.97 in 10.0 mi WNW 8.1 mph - N/A   Mostly Cloudy
3:08 AM 73.4 °F - 66.2 °F 78% 30.19 in 10.0 mi East 13.8 mph - N/A Thunderstorm Thunderstorm
3:18 AM 71.6 °F - 64.4 °F 78% 30.19 in 10.0 mi North 6.9 mph - N/A Rain , Thunderstorm Light Thunderstorms and Rain
3:55 AM 69.8 °F - 66.2 °F 88% 30.01 in 10.0 mi East 4.6 mph - N/A Rain , Thunderstorm Light Thunderstorms and Rain
4:55 AM 69.8 °F - 64.4 °F 83% 30.02 in 10.0 mi East 6.9 mph - N/A Rain Light Rain Showers
5:18 AM 68.0 °F - 64.4 °F 88% 30.24 in 10.0 mi NW 4.6 mph - N/A   Mostly Cloudy
5:55 AM 69.8 °F - 64.4 °F 83% 30.06 in 10.0 mi Calm Calm - N/A   Mostly Cloudy
6:55 AM 71.6 °F - 64.4 °F 78% 30.05 in 10.0 mi Calm Calm - N/A   Mostly Cloudy
7:55 AM 75.2 °F - 62.6 °F 65% 30.06 in 10.0 mi SW 3.5 mph - N/A   Mostly Cloudy
8:55 AM 78.8 °F - 60.8 °F 54% 30.06 in 10.0 mi Calm Calm - N/A   Mostly Cloudy
9:55 AM 80.6 °F 81.8 °F 62.6 °F 54% 30.05 in 10.0 mi East 4.6 mph - N/A   Mostly Cloudy
10:55 AM 84.2 °F 84.4 °F 60.8 °F 45% 30.04 in 10.0 mi Variable 6.9 mph - N/A   Mostly Cloudy
11:55 AM 87.8 °F 86.1 °F 55.4 °F 33% 30.03 in 10.0 mi NNE 9.2 mph - N/A   Mostly Cloudy
12:55 PM 89.6 °F 87.7 °F 55.4 °F 31% 30.00 in 10.0 mi ENE 9.2 mph - N/A   Mostly Cloudy
1:55 PM 87.8 °F 86.1 °F 55.4 °F 33% 29.98 in 10.0 mi NE 6.9 mph - N/A   Mostly Cloudy
2:55 PM 89.6 °F 88.1 °F 57.2 °F 33% 29.95 in 10.0 mi North 6.9 mph - N/A   Mostly Cloudy
3:55 PM 89.6 °F 87.7 °F 55.4 °F 31% 29.93 in 10.0 mi Variable 3.5 mph - N/A   Mostly Cloudy
9:51 PM 66.2 °F - 59.0 °F 78% 30.20 in 3.0 mi ENE 54.1 mph 81.7 mph N/A Thunderstorm Unknown
9:55 PM 64.4 °F - 59.0 °F 83% 30.04 in 2.0 mi East 48.3 mph 81.7 mph N/A Rain , Thunderstorm Heavy Thunderstorms and Rain
10:11 PM 62.6 °F - 60.8 °F 94% 30.26 in 0.8 mi East 21.9 mph 62.1 mph N/A Rain , Thunderstorm Heavy Thunderstorms and Rain
10:18 PM 62.6 °F - 60.8 °F 94% 30.21 in 1.2 mi South 18.4 mph 33.4 mph N/A Rain , Thunderstorm Heavy Thunderstorms and Rain
10:27 PM 62.6 °F - 60.8 °F 94% 30.21 in 2.5 mi SSW 23.0 mph 27.6 mph N/A Rain , Thunderstorm Thunderstorms and Rain
10:40 PM 64.4 °F - 60.8 °F 88% - 7.0 mi SSW 24.2 mph - N/A Rain , Thunderstorm Light Thunderstorms and Rain
10:55 PM 68.0 °F - 59.0 °F 73% 30.04 in 10.0 mi West 21.9 mph 31.1 mph N/A Rain , Thunderstorm Light Thunderstorms and Rain
11:55 PM 69.8 °F - 60.8 °F 73% 29.98 in 10.0 mi Variable 6.9 mph - N/A Rain , Thunderstorm Light Thunderstorms and Rain